Date String (YYYY-MM-DD hh:mm:ss) UTC,Instrument flags,Ambient pressure (hPa),Sample flow (lpm),Bypass flow (lpm),Sample temperature (°C),Ambient temperature (°C),ASC tube jacket temperature (°C),LED temperature (°C),Box temperature (°C),Sample RH (%),Span deviation,Mass concentration (μg/m³),Mass concentration (μg/m³),Mass concentration (μg/m³)
DateTimeUTC,F1_M11,P_M11,Q1_M11,Q2_M11,T1_M11,T2_M11,T3_M11,T4_M11,T5_M11,U1_M11,ZSPAN_M11,X0_M11,X2_M11,X1_M11
2021-11-29 04:00:00,,0829.4,5.00,0.00,29.7,28.9,00.0,38.7,31.4,09.4,0000.0,0002.24,0000.64,0000.35
2021-11-29 04:01:00,,0829.4,5.01,0.00,29.7,28.9,00.0,38.7,31.4,09.4,0000.0,0002.89,0000.65,0000.34
2021-11-29 04:02:00,,0829.4,5.00,0.00,29.7,28.9,00.0,38.7,31.3,09.3,0000.0,0003.17,0000.66,0000.34
2021-11-29 04:03:00,,0829.5,5.01,0.00,29.7,28.8,00.0,38.7,31.3,09.2,0000.0,0003.19,0000.67,0000.34
2021-11-29 04:04:00,,0829.6,5.01,0.00,29.6,28.8,00.0,38.7,31.3,09.2,0000.0,0003.39,0000.71,0000.35
2021-11-29 04:05:00,,0829.6,4.99,0.00,29.6,28.8,00.0,38.7,31.3,09.2,0000.0,0003.48,0000.73,0000.35
2021-11-29 04:06:00,,0829.6,5.00,0.00,29.6,28.8,00.0,38.7,31.3,09.3,0000.0,0003.54,0000.76,0000.36
2021-11-29 04:07:00,,0829.5,5.01,0.00,29.6,28.8,00.0,38.7,31.3,09.4,0000.0,0003.53,0000.76,0000.36
2021-11-29 04:08:00,,0829.5,4.99,0.00,29.6,28.8,00.0,38.7,31.3,09.4,0000.0,0003.49,0000.77,0000.37
2021-11-29 04:09:00,,0829.5,5.01,0.00,29.6,28.8,00.0,38.7,31.3,09.5,0000.0,0003.16,0000.75,0000.37
2021-11-29 04:10:00,,0829.5,5.00,0.00,29.6,28.8,00.0,38.7,31.3,09.5,0000.0,0003.04,0000.72,0000.37
2021-11-29 04:11:00,,0829.5,4.97,0.00,29.6,28.8,00.0,38.6,31.3,09.5,0000.0,0003.83,0000.78,0000.37
2021-11-29 04:12:00,,0829.6,5.01,0.00,29.6,28.8,00.0,38.6,31.4,09.5,0000.0,0003.27,0000.80,0000.38
2021-11-29 04:13:00,,0829.5,5.00,0.00,29.7,28.8,00.0,38.6,31.4,09.5,0000.0,0002.96,0000.81,0000.38
2021-11-29 04:14:00,,0829.5,4.99,0.00,29.7,28.8,00.0,38.7,31.4,09.5,0000.0,0003.05,0000.84,0000.38
2021-11-29 04:15:00,,0829.5,5.00,0.00,29.7,28.8,00.0,38.7,31.4,09.5,0000.0,0002.88,0000.82,0000.38
2021-11-29 04:16:00,,0829.6,5.01,0.00,29.7,28.9,00.0,38.7,31.4,09.5,0000.0,0002.78,0000.83,0000.38
2021-11-29 04:17:00,,0829.5,5.00,0.00,29.7,28.9,00.0,38.7,31.4,09.5,0000.0,0002.76,0000.81,0000.37
2021-11-29 04:18:00,,0829.5,5.00,0.00,29.7,28.9,00.0,38.7,31.5,09.4,0000.0,0002.94,0000.84,0000.37
2021-11-29 04:19:00,,0829.5,5.00,0.00,29.7,28.9,00.0,38.7,31.5,09.3,0000.0,0002.89,0000.83,0000.36
2021-11-29 04:20:00,,0829.5,5.00,0.00,29.7,28.9,00.0,38.7,31.5,09.2,0000.0,0002.84,0000.82,0000.37
2021-11-29 04:21:00,,0829.6,5.00,0.00,29.7,28.9,00.0,38.7,31.4,09.2,0000.0,0002.79,0000.86,0000.37
2021-11-29 04:22:00,,0829.5,4.99,0.00,29.7,28.9,00.0,38.7,31.4,09.2,0000.0,0002.10,0000.80,0000.36
2021-11-29 04:23:00,,0829.6,5.01,0.00,29.7,28.9,00.0,38.7,31.4,09.3,0000.0,0002.54,0000.79,0000.36
2021-11-29 04:24:00,,0829.5,4.99,0.00,29.7,28.9,00.0,38.7,31.4,09.3,0000.0,0002.56,0000.78,0000.36
2021-11-29 04:25:00,,0829.5,5.00,0.00,29.7,28.9,00.0,38.7,31.4,09.3,0000.0,0002.41,0000.74,0000.36
2021-11-29 04:26:00,,0829.5,4.99,0.00,29.7,28.9,00.0,38.7,31.4,09.4,0000.0,0002.55,0000.77,0000.36
2021-11-29 04:27:00,,0829.5,5.00,0.00,29.7,28.9,00.0,38.7,31.4,09.4,0000.0,0002.68,0000.81,0000.37
2021-11-29 04:28:00,,0829.5,4.98,0.00,29.7,28.9,00.0,38.7,31.5,09.4,0000.0,0002.76,0000.81,0000.38
2021-11-29 04:29:00,,0829.4,5.02,0.00,29.7,28.9,00.0,38.7,31.5,09.4,0000.0,0004.14,0000.78,0000.39
2021-11-29 04:30:00,,0829.5,4.99,0.00,29.7,28.9,00.0,38.7,31.4,09.5,0000.0,0004.59,0000.77,0000.39
2021-11-29 04:31:00,,0829.5,5.02,0.00,29.7,28.9,00.0,38.7,31.4,09.5,0000.0,0004.51,0000.77,0000.39
2021-11-29 04:32:00,,0829.5,5.00,0.00,29.7,28.9,00.0,38.7,31.4,09.4,0000.0,0004.24,0000.73,0000.39
2021-11-29 04:33:00,,0829.4,5.00,0.00,29.7,28.8,00.0,38.7,31.4,09.4,0000.0,0004.40,0000.76,0000.41
2021-11-29 04:34:00,,0829.5,4.99,0.00,29.7,28.8,00.0,38.7,31.4,09.4,0000.0,0004.37,0000.79,0000.42
2021-11-29 04:35:00,,0829.5,5.00,0.00,29.7,28.8,00.0,38.7,31.4,09.4,0000.0,0004.96,0000.85,0000.42
2021-11-29 04:36:00,,0829.6,5.02,0.00,29.6,28.8,00.0,38.7,31.3,09.4,0000.0,0005.10,0000.88,0000.41
2021-11-29 04:37:00,,0829.5,4.99,0.00,29.6,28.8,00.0,38.7,31.3,09.3,0000.0,0005.27,0000.88,0000.41
2021-11-29 04:38:00,,0829.6,5.00,0.00,29.6,28.7,00.0,38.7,31.2,09.4,0000.0,0005.18,0000.86,0000.41
2021-11-29 04:39:00,,0829.5,5.01,0.00,29.5,28.7,00.0,38.6,31.2,09.3,0000.0,0005.07,0000.84,0000.41
2021-11-29 04:40:00,,0829.5,4.99,0.00,29.5,28.7,00.0,38.6,31.2,09.3,0000.0,0003.33,0000.83,0000.41
2021-11-29 04:41:00,,0829.5,5.00,0.00,29.5,28.7,00.0,38.6,31.2,09.4,0000.0,0002.98,0000.81,0000.42
2021-11-29 04:42:00,,0829.5,4.99,0.00,29.5,28.7,00.0,38.6,31.2,09.4,0000.0,0003.09,0000.83,0000.42
2021-11-29 04:43:00,,0829.5,5.01,0.00,29.5,28.7,00.0,38.6,31.2,09.4,0000.0,0003.09,0000.84,0000.42
2021-11-29 04:44:00,,0829.5,4.99,0.00,29.5,28.6,00.0,38.6,31.2,09.2,0000.0,0002.88,0000.84,0000.42
2021-11-29 04:45:00,,0829.5,5.00,0.00,29.4,28.6,00.0,38.6,31.1,09.1,0000.0,0002.51,0000.85,0000.41
2021-11-29 04:46:00,,0829.5,4.99,0.00,29.4,28.6,00.0,38.6,31.1,09.2,0000.0,0001.85,0000.79,0000.42
2021-11-29 04:47:00,,0829.6,4.99,0.00,29.4,28.6,00.0,38.6,31.1,09.3,0000.0,0001.79,0000.77,0000.42
2021-11-29 04:48:00,,0829.6,5.01,0.00,29.4,28.6,00.0,38.5,31.1,09.3,0000.0,0001.68,0000.78,0000.42
2021-11-29 04:49:00,,0829.5,5.00,0.00,29.4,28.6,00.0,38.5,31.1,09.3,0000.0,0001.68,0000.78,0000.42
2021-11-29 04:50:00,,0829.5,4.98,0.00,29.4,28.6,00.0,38.5,31.2,09.4,0000.0,0001.80,0000.83,0000.42
2021-11-29 04:51:00,,0829.5,5.00,0.00,29.4,28.6,00.0,38.5,31.2,09.4,0000.0,0002.06,0000.91,0000.43
2021-11-29 04:52:00,,0829.5,5.00,0.00,29.4,28.6,00.0,38.5,31.2,09.4,0000.0,0002.37,0000.93,0000.43
2021-11-29 04:53:00,,0829.5,5.00,0.00,29.5,28.7,00.0,38.5,31.2,09.4,0000.0,0003.52,0000.93,0000.43
2021-11-29 04:54:00,,0829.5,4.98,0.00,29.5,28.7,00.0,38.5,31.2,09.3,0000.0,0004.42,0000.97,0000.42
2021-11-29 04:55:00,,0829.5,5.01,0.00,29.5,28.7,00.0,38.5,31.2,09.3,0000.0,0004.39,0000.94,0000.42
2021-11-29 04:56:00,,0829.5,4.99,0.00,29.5,28.7,00.0,38.5,31.2,09.3,0000.0,0004.29,0000.91,0000.43
2021-11-29 04:57:00,,0829.6,5.00,0.00,29.5,28.7,00.0,38.5,31.2,09.3,0000.0,0004.36,0000.92,0000.43
2021-11-29 04:58:00,,0829.6,5.00,0.00,29.5,28.7,00.0,38.5,31.2,09.2,0000.0,0004.38,0000.92,0000.43
2021-11-29 04:59:00,,0829.6,5.01,0.00,29.5,28.7,00.0,38.5,31.3,09.2,0000.0,0004.17,0000.88,0000.42
